Location: Recife
(8.0585°S, 34.8848°W)
Time: 10:12:30
(UTC-03:00)

SR - Pass Details

Date: 22 April 2026
Orbit: 568 x 852 km, 66.7° (Epoch: 12 May)

Event Time Altitude Azimuth Distance (km) Brightness Sun altitude
Rises 23:57:27 0° 307° (NW) 3,391 - -79.5°
Reaches altitude 10° 00:00:50 10° 287° (WNW) 2,438 - -78.7°
Maximum altitude 00:04:21 17° 248° (WSW) 1,969 - -77.9°
Drops below altitude 10° 00:07:47 10° 209° (SSW) 2,365 - -77.1°
Sets 00:11:01 0° 189° (S) 3,244 - -76.4°
